Meadville, PA

6:33 PM EST on February 27, 2017 (GMT -0500)
Port Meadville

Weather History for KGKJ - July, 2013

Change the Weather History Date:

Thursday, July 11, 2013

  Actual Average Record
Temperature  
Mean Temperature 67 °F -  
Max Temperature 73 °F 81 °F 93 °F (1988)
Min Temperature 60 °F 56 °F 44 °F (1978)
Cooling Degree Days 2    
Growing Degree Days 17 (Base 50)    
Moisture  
Dew Point 58 °F    
Average Humidity 77    
Maximum Humidity 94    
Minimum Humidity 51    
Precipitation  
Precipitation 0.04 in - - ()
Sea Level Pressure  
Sea Level Pressure 29.99 in    
Wind  
Wind Speed 6 mph (NNW)    
Max Wind Speed 10 mph    
Max Gust Speed -    
Visibility 9 miles    
Events Rain    
Averages and records for this station are not official NWS values.
T = Trace of Precipitation, MM = Missing Value Source: NWS Daily Summary

Daily Weather History Graph

Daily Weather History Graph

Search for Another Location

Airport or City:

Trip Planner

Search our weather history database for the weather conditions in past years. The results will help you decide how hot, cold, wet, or windy it might be!

Date:

Astronomy

Jul. 11, 2013 Rise Set
Actual Time 5:56 AM EDT 8:55 PM EDT
Civil Twilight 5:23 AM EDT 9:28 PM EDT
Nautical Twilight 4:41 AM EDT 10:11 PM EDT
Astronomical Twilight 3:51 AM EDT 11:00 PM EDT
Moon 9:16 AM EDT (7/11) 10:31 PM EDT (7/11)
Length of Visible Light 16h 05m
Length of Day
14h 58m
Waxing Crescent, 10% of the Moon is Illuminated
Jul 11
Waxing Crescent
Jul 15
First Quarter
Jul 22
Full
Jul 29
Last Quarter
Aug 6
New

Hourly Weather History & Observations

Time (EDT) Temp. Dew Point Humidity Pressure Visibility Wind Dir Wind Speed Gust Speed Precip Events Conditions
12:10 AM 66.2 °F 62.6 °F 88% 29.94 in 10.0 mi SW 5.8 mph - N/A   Overcast
12:53 AM 64.9 °F 63.0 °F 93% 29.91 in 4.0 mi SW 6.9 mph - 0.01 in Rain Light Rain
1:10 AM 64.4 °F 62.6 °F 94% 29.94 in 2.5 mi SW 6.9 mph - 0.02 in Rain Rain
1:13 AM 64.4 °F 62.6 °F 94% 29.94 in 3.0 mi SW 4.6 mph - 0.02 in Rain Light Rain
1:21 AM 64.4 °F 62.6 °F 94% 29.94 in 4.0 mi SW 4.6 mph - 0.03 in Rain Light Rain
1:53 AM 64.9 °F 63.0 °F 93% 29.91 in 10.0 mi WSW 3.5 mph - 0.03 in   Overcast
2:02 AM 64.4 °F 62.6 °F 94% 29.94 in 10.0 mi WSW 3.5 mph - N/A   Overcast
2:46 AM 64.4 °F 62.6 °F 94% 29.95 in 10.0 mi WNW 3.5 mph - N/A   Overcast
2:53 AM 64.9 °F 63.0 °F 93% 29.93 in 10.0 mi NW 5.8 mph - N/A   Overcast
3:53 AM 64.0 °F 62.1 °F 93% 29.94 in 10.0 mi NNE 5.8 mph - N/A   Overcast
4:53 AM 63.0 °F 60.1 °F 90% 29.96 in 10.0 mi NNE 5.8 mph - N/A   Overcast
5:53 AM 61.0 °F 59.0 °F 93% 29.98 in 10.0 mi NNE 3.5 mph - N/A   Clear
6:53 AM 61.0 °F 59.0 °F 93% 29.99 in 10.0 mi North 6.9 mph - N/A   Scattered Clouds
7:53 AM 64.0 °F 59.0 °F 84% 30.01 in 10.0 mi NNE 3.5 mph - N/A   Clear
8:53 AM 64.0 °F 57.9 °F 80% 30.02 in 10.0 mi North 5.8 mph - N/A   Clear
9:40 AM 68.0 °F 59.0 °F 73% 30.04 in 10.0 mi NNE 6.9 mph - N/A   Mostly Cloudy
9:53 AM 66.0 °F 57.0 °F 73% 30.02 in 10.0 mi North 6.9 mph - N/A   Mostly Cloudy
10:00 AM 66.2 °F 57.2 °F 73% 30.04 in 10.0 mi North 8.1 mph - N/A   Scattered Clouds
10:44 AM 66.2 °F 55.4 °F 68% 30.04 in 10.0 mi North 8.1 mph - N/A   Mostly Cloudy
10:53 AM 69.1 °F 55.9 °F 63% 30.03 in 10.0 mi North 8.1 mph - N/A   Mostly Cloudy
11:53 AM 69.1 °F 57.0 °F 65% 30.03 in 10.0 mi NNE 5.8 mph - N/A   Mostly Cloudy
12:53 PM 71.1 °F 55.9 °F 59% 30.02 in 10.0 mi WNW 5.8 mph - N/A   Mostly Cloudy
1:53 PM 72.0 °F 55.0 °F 55% 30.01 in 10.0 mi Variable 5.8 mph - N/A   Mostly Cloudy
2:53 PM 73.0 °F 54.0 °F 51% 30.01 in 10.0 mi NNW 9.2 mph - N/A   Scattered Clouds
3:53 PM 71.1 °F 52.0 °F 51% 30.01 in 10.0 mi North 5.8 mph - N/A   Partly Cloudy
4:53 PM 73.0 °F 54.0 °F 51% 30.02 in 10.0 mi NNE 10.4 mph - N/A   Clear
5:53 PM 72.0 °F 54.0 °F 53% 30.02 in 10.0 mi NNE 6.9 mph - N/A   Partly Cloudy
6:53 PM 71.1 °F 55.0 °F 57% 30.03 in 10.0 mi Variable 4.6 mph - N/A   Clear
7:53 PM 69.1 °F 55.9 °F 63% 30.03 in 10.0 mi North 4.6 mph - N/A   Clear
8:53 PM 64.9 °F 57.0 °F 75% 30.03 in 10.0 mi North 3.5 mph - N/A   Clear
9:53 PM 63.0 °F 55.9 °F 78% 30.03 in 10.0 mi North 4.6 mph - N/A   Clear
10:53 PM 61.0 °F 57.0 °F 87% 30.03 in 10.0 mi NE 3.5 mph - N/A   Clear
11:53 PM 60.1 °F 57.0 °F 90% 30.04 in 10.0 mi Calm Calm - N/A   Clear